Weather History for Montevideo, MN

Change the Weather History Date:

Monday, July 29, 2013

  Actual Average Record
Temperature  
Mean Temperature 62 °F -  
Max Temperature 75 °F 83 °F 104 °F (1988)
Min Temperature 50 °F 59 °F 39 °F (1971)
Degree Days  
Heating Degree Days 2    
Growing Degree Days 12 (Base 50)    
Moisture  
Dew Point 55 °F    
Average Humidity 81    
Maximum Humidity 100    
Minimum Humidity 47    
Precipitation  
Precipitation 0.00 in - - ()
Sea Level Pressure  
Sea Level Pressure 30.08 in    
Wind  
Wind Speed 3 mph (South)    
Max Wind Speed 12 mph    
Max Gust Speed -    
Visibility 10 miles    
Events Rain    
Averages and records for this station are not official NWS values.
T = Trace of Precipitation, MM = Missing Value Source: NWS Daily Summary

Daily Weather History Graph

Daily Weather History Graph

Search for Another Location

Airport:

Trip Planner

Search our weather history database for the weather conditions in past years. The results will help you decide how hot, cold, wet, or windy it might be!

Date:

Astronomy

Jul. 29, 2013 Rise Set
Actual Time 6:05 AM CDT 8:52 PM CDT
Civil Twilight 5:31 AM CDT 9:26 PM CDT
Nautical Twilight 4:47 AM CDT 10:09 PM CDT
Astronomical Twilight 3:57 AM CDT 10:59 PM CDT
Moon No Moon Rise 2:11 PM CDT (7/29)
Length of Visible Light 15h 55m
Length of Day
14h 47m
Waning Gibbous, 50% of the Moon is Illuminated
Jul 29
Waning Gibbous
Jul 29
Last Quarter
Aug 6
New
Aug 14
First Quarter
Aug 20
Full

Hourly Weather History & Observations

Time (CDT) Temp. Dew Point Humidity Pressure Visibility Wind Dir Wind Speed Gust Speed Precip Events Conditions
12:14 AM 57.2 °F 53.6 °F 88% 30.08 in 10.0 mi Calm Calm - N/A   Clear
12:34 AM 55.4 °F 53.6 °F 94% 30.08 in 10.0 mi Calm Calm - N/A   Clear
12:54 AM 55.4 °F 51.8 °F 88% 30.08 in 10.0 mi Calm Calm - N/A   Clear
1:14 AM 55.4 °F 53.6 °F 94% 30.08 in 10.0 mi South 3.5 mph - N/A   Clear
1:34 AM 55.4 °F 53.6 °F 94% 30.08 in 10.0 mi Calm Calm - N/A   Clear
1:54 AM 53.6 °F 53.6 °F 100% 30.08 in 10.0 mi Calm Calm - N/A   Clear
2:14 AM 55.4 °F 53.6 °F 94% 30.08 in 10.0 mi Calm Calm - N/A   Clear
2:34 AM 55.4 °F 53.6 °F 94% 30.08 in 10.0 mi Calm Calm - N/A   Clear
2:54 AM 53.6 °F 53.6 °F 100% 30.08 in 10.0 mi Calm Calm - N/A   Clear
3:14 AM 53.6 °F 53.6 °F 100% 30.07 in 10.0 mi Calm Calm - N/A   Clear
3:34 AM 51.8 °F 51.8 °F 100% 30.07 in 10.0 mi South 3.5 mph - N/A   Clear
3:54 AM 51.8 °F 51.8 °F 100% 30.08 in 10.0 mi Calm Calm - N/A   Clear
4:14 AM 51.8 °F 51.8 °F 100% 30.08 in 10.0 mi SSE 3.5 mph - N/A   Clear
4:34 AM 51.8 °F 51.8 °F 100% 30.08 in 10.0 mi South 4.6 mph - N/A   Clear
4:54 AM 51.8 °F 51.8 °F 100% 30.07 in 10.0 mi South 4.6 mph - N/A   Clear
5:14 AM 51.8 °F 51.8 °F 100% 30.07 in 10.0 mi SSE 4.6 mph - N/A   Clear
5:34 AM 51.8 °F 51.8 °F 100% 30.07 in 10.0 mi South 4.6 mph - N/A   Clear
5:54 AM 50.0 °F 50.0 °F 100% - 10.0 mi South 5.8 mph - N/A   Clear
6:14 AM 50.0 °F 50.0 °F 100% 30.08 in 10.0 mi South 4.6 mph - N/A   Clear
6:34 AM 51.8 °F 51.8 °F 100% 30.08 in 10.0 mi South 4.6 mph - N/A   Clear
6:54 AM 51.8 °F 51.8 °F 100% 30.08 in 10.0 mi South 5.8 mph - N/A   Clear
7:13 AM 53.6 °F 51.8 °F 94% 30.08 in 10.0 mi South 4.6 mph - N/A   Clear
7:34 AM 53.6 °F 53.6 °F 100% 30.09 in 10.0 mi South 5.8 mph - N/A   Clear
7:54 AM 55.4 °F 53.6 °F 94% 30.10 in 10.0 mi South 4.6 mph - N/A   Clear
8:13 AM 57.2 °F 55.4 °F 94% 30.10 in 10.0 mi South 5.8 mph - N/A   Clear
8:34 AM 57.2 °F 55.4 °F 94% 30.11 in 10.0 mi South 4.6 mph - N/A   Clear
8:54 AM 59.0 °F 55.4 °F 88% 30.11 in 10.0 mi South 3.5 mph - N/A   Clear
9:13 AM 60.8 °F 55.4 °F 82% 30.11 in 10.0 mi South 4.6 mph - N/A   Clear
9:34 AM 62.6 °F 55.4 °F 77% 30.11 in 10.0 mi South 4.6 mph - N/A   Clear
9:54 AM 64.4 °F 55.4 °F 73% 30.11 in 10.0 mi SSW 4.6 mph - N/A   Clear
10:14 AM 64.4 °F 55.4 °F 73% 30.10 in 10.0 mi SSW 6.9 mph - N/A   Clear
10:34 AM 66.2 °F 57.2 °F 73% 30.10 in 10.0 mi South 8.1 mph - N/A   Clear
10:54 AM 69.8 °F 55.4 °F 60% 30.09 in 10.0 mi SSW 9.2 mph - N/A   Clear
11:14 AM 71.6 °F 55.4 °F 57% 30.09 in 10.0 mi South 9.2 mph - N/A   Clear
11:34 AM 71.6 °F 53.6 °F 53% 30.09 in 10.0 mi South 11.5 mph - N/A   Clear
11:54 AM 71.6 °F 53.6 °F 53% 30.09 in 10.0 mi South 8.1 mph - N/A   Clear
12:14 PM 71.6 °F 53.6 °F 53% 30.08 in 10.0 mi South 9.2 mph - N/A   Clear
12:34 PM 71.6 °F 51.8 °F 50% 30.08 in 10.0 mi South 5.8 mph - N/A   Clear
12:54 PM 73.4 °F 53.6 °F 50% 30.08 in 10.0 mi South 9.2 mph - N/A   Clear
1:14 PM 73.4 °F 53.6 °F 50% 30.08 in 10.0 mi South 6.9 mph - N/A   Scattered Clouds
1:34 PM 73.4 °F 51.8 °F 47% 30.08 in 10.0 mi SSE 5.8 mph - N/A   Scattered Clouds
1:54 PM 73.4 °F 53.6 °F 50% 30.08 in 10.0 mi SW 10.4 mph - N/A   Clear
2:14 PM 73.4 °F 51.8 °F 47% 30.07 in 10.0 mi SSW 5.8 mph - N/A   Clear
2:34 PM 75.2 °F 53.6 °F 47% 30.07 in 10.0 mi South 6.9 mph - N/A   Clear
2:54 PM 75.2 °F 53.6 °F 47% 30.07 in 10.0 mi SW 11.5 mph - N/A   Scattered Clouds
3:14 PM 73.4 °F 53.6 °F 50% 30.07 in 10.0 mi SW 6.9 mph - N/A   Scattered Clouds
3:34 PM 73.4 °F 53.6 °F 50% 30.07 in 10.0 mi SSW 5.8 mph - N/A   Clear
3:50 PM 73.4 °F 53.6 °F 50% 30.07 in 10.0 mi South 6.9 mph - N/A   Clear
4:14 PM - - N/A% - - North - - N/A   Unknown
4:34 PM 71.6 °F 53.6 °F 53% 30.07 in 10.0 mi South 3.5 mph - N/A   Unknown
4:53 PM 71.6 °F 53.6 °F 53% 30.07 in 10.0 mi South 4.6 mph - N/A   Scattered Clouds
5:14 PM 71.6 °F 55.4 °F 57% 30.07 in 10.0 mi Calm Calm - N/A   Mostly Cloudy
5:34 PM 71.6 °F 55.4 °F 57% 30.07 in 10.0 mi Calm Calm - N/A Rain Light Rain
5:54 PM 69.8 °F 60.8 °F 73% 30.07 in 10.0 mi Calm Calm - N/A Rain Light Rain
6:14 PM 69.8 °F 60.8 °F 73% 30.08 in 10.0 mi WSW 3.5 mph - N/A Rain Rain
6:34 PM 68.0 °F 59.0 °F 73% 30.08 in 10.0 mi Calm Calm - N/A Rain Rain
6:54 PM 66.2 °F 60.8 °F 83% 30.08 in 10.0 mi Calm Calm - N/A Rain Light Rain
7:13 PM 66.2 °F 60.8 °F 83% 30.07 in 7.0 mi ENE 4.6 mph - N/A Rain Rain
7:34 PM 64.4 °F 60.8 °F 88% 30.08 in 10.0 mi Calm Calm - N/A Rain Light Rain
7:54 PM 64.4 °F 62.6 °F 94% 30.08 in 7.0 mi NNE 6.9 mph - N/A Rain Rain
8:13 PM 60.8 °F 60.8 °F 100% 30.07 in 10.0 mi East 8.1 mph - N/A Rain Rain
8:34 PM 60.8 °F 60.8 °F 100% 30.07 in 10.0 mi East 8.1 mph - N/A Rain Light Rain
8:54 PM 60.8 °F 60.8 °F 100% 30.06 in 10.0 mi ESE 8.1 mph - N/A   Overcast
9:13 PM 60.8 °F 60.8 °F 100% 30.07 in 10.0 mi ESE 6.9 mph - N/A Rain Light Rain
9:34 PM 62.6 °F 60.8 °F 94% 30.09 in 10.0 mi South 3.5 mph - N/A   Overcast
9:54 PM 62.6 °F 60.8 °F 94% 30.09 in 10.0 mi Calm Calm - N/A Rain Light Rain
10:14 PM 62.6 °F 62.6 °F 100% 30.08 in 7.0 mi ESE 6.9 mph - N/A Rain Light Rain
10:34 PM 62.6 °F 60.8 °F 94% 30.08 in 10.0 mi SE 5.8 mph - N/A Rain Light Rain
10:54 PM 60.8 °F 60.8 °F 100% 30.08 in 10.0 mi ESE 8.1 mph - N/A   Overcast
11:14 PM 60.8 °F 60.8 °F 100% 30.07 in 10.0 mi SE 6.9 mph - N/A   Overcast
11:34 PM 60.8 °F 60.8 °F 100% 30.07 in 10.0 mi SSE 6.9 mph - N/A   Overcast
11:54 PM 60.8 °F 60.8 °F 100% 30.08 in 10.0 mi SSE 4.6 mph - N/A   Overcast